F5ODK-12 Weather Reports


time (UTC)temp
C
wind
direction
speed
KPH
gust
KPH
rain 1hr
cm
rain 24hr
cm
rain mn
cm
humidity
%
barometer
mb
20260505150901 18 0.0 0.0 0.00 0.00 0.00 61 1012.2
20260505150400 18 0.0 0.0 0.00 0.00 0.00 61 1011.9
20260505140352 19 0.0 0.0 0.00 0.00 0.00 61 1011.5
20260505124841 18 0.0 0.0 0.00 0.00 0.00 63 1012.1
20260505124340 18 0.0 0.0 0.00 0.00 0.00 63 1012.1
20260505123839 17 0.0 0.0 0.00 0.00 0.00 65 1012.2
20260505123338 17 0.0 0.0 0.00 0.00 0.00 64 1012.2
20260505122838 17 0.0 0.0 0.00 0.00 0.00 65 1012.2
20260505122337 17 0.0 0.0 0.00 0.00 0.00 65 1012.3
20260505121836 17 0.0 0.0 0.00 0.00 0.00 64 1012.3
20260505121336 17 0.0 0.0 0.00 0.00 0.00 65 1012.2
20260505120835 17 0.0 0.0 0.00 0.00 0.00 65 1012.3
20260505120335 17 0.0 0.0 0.00 0.00 0.00 65 1012.4
20260505115833 17 0.0 0.0 0.00 0.00 0.00 65 1012.5
20260505115333 17 0.0 0.0 0.00 0.00 0.00 64 1012.5
20260505114833 17 0.0 0.0 0.00 0.00 0.00 65 1012.6
20260505114332 17 0.0 0.0 0.00 0.00 0.00 65 1012.6
20260505113831 17 0.0 0.0 0.00 0.00 0.00 65 1012.5
20260505113331 17 0.0 0.0 0.00 0.00 0.00 65 1012.5
20260505112830 17 0.0 0.0 0.00 0.00 0.00 65 1012.5
20260505112329 17 0.0 0.0 0.00 0.00 0.00 64 1012.6
20260505111828 17 0.0 0.0 0.00 0.00 0.00 64 1012.5
20260505111328 17 0.0 0.0 0.00 0.00 0.00 65 1012.7
20260505110827 17 0.0 0.0 0.00 0.00 0.00 65 1012.6
20260505110326 18 0.0 0.0 0.00 0.00 0.00 64 1012.7
20260505101820 16 0.0 0.0 0.00 0.00 0.00 68 1012.6
20260505101319 16 0.0 0.0 0.00 0.00 0.00 66 1012.7
20260505100818 17 0.0 0.0 0.00 0.00 0.00 67 1012.7
20260505100318 17 0.0 0.0 0.00 0.00 0.00 67 1012.6
20260505095817 17 0.0 0.0 0.00 0.00 0.00 67 1012.6
20260505095316 17 0.0 0.0 0.00 0.00 0.00 67 1012.4
20260505094815 17 0.0 0.0 0.00 0.00 0.00 67 1012.5
20260505094314 17 0.0 0.0 0.00 0.00 0.00 67 1012.5
20260505093814 16 0.0 0.0 0.00 0.00 0.00 68 1012.5
20260505093313 15 0.0 0.0 0.00 0.00 0.00 68 1012.5
20260505092812 16 0.0 0.0 0.00 0.00 0.00 67 1012.6
20260505092312 15 0.0 0.0 0.00 0.00 0.00 68 1012.6
20260505091811 15 0.0 0.0 0.00 0.00 0.00 68 1012.5
20260505091310 15 0.0 0.0 0.00 0.00 0.00 68 1012.5
20260505090810 15 0.0 0.0 0.00 0.00 0.00 68 1012.5
20260505090309 15 0.0 0.0 0.00 0.00 0.00 69 1012.4
20260505085808 15 0.0 0.0 0.00 0.00 0.00 68 1012.4
20260505085307 15 0.0 0.0 0.00 0.00 0.00 69 1012.3
20260505084807 16 0.0 0.0 0.00 0.00 0.00 69 1012.3
20260505084306 16 0.0 0.0 0.00 0.00 0.00 68 1012.3
20260505083805 15 0.0 0.0 0.00 0.00 0.00 69 1012.2
20260505083305 15 0.0 0.0 0.00 0.00 0.00 69 1012.2
20260505082804 15 0.0 0.0 0.00 0.00 0.00 69 1012.2
20260505082304 15 0.0 0.0 0.00 0.00 0.00 69 1012.3
20260505081803 15 0.0 0.0 0.00 0.00 0.00 69 1012.2